Location: Zagreb
(45.8000°N, 16.0000°E)
Time: 13:56:56
(UTC+02:00)

Transit 2A Rocket - Pass Details

Date: 17 August 2022
Orbit: 593 x 907 km, 66.7° (Epoch: 25 September)

Event Time Altitude Azimuth Distance (km) Brightness Sun altitude
Rises 04:13:18 0° 310° (NW) 2,889 7.9 -16.5°
Reaches altitude 10° 04:16:17 10° 288° (WNW) 2,017 6.9 -16.1°
Enters shadow 04:16:20 10° 287° (WNW) 2,007 6.9 -16.1°
Maximum altitude 04:18:58 16° 251° (WSW) 1,709 - -15.8°
Drops below altitude 10° 04:21:44 10° 215° (SW) 2,101 - -15.4°
Sets 04:24:58 0° 194° (SSW) 3,077 - -15.0°
